Regional Weather Roundup
Issued by NWS Midland/Odessa, TX

Home | Current Version | Previous Version | Text Only | Print | Product List | Glossary On
Versions: 1 2 3 4 5 6 7 8 9 10 11 12 13 14 15 16 17 18 19 20 21 22 23 24 25 26 27 28 29 30 31 32 33 34 35 36 37 38 39 40 41 42 43 44 45 46 47 48 49 50
000
ASUS44 KMAF 211610
RWRMAF
MIDLAND AREA WEATHER ROUNDUP
NATIONAL WEATHER SERVICE MIDLAND TX
1100 AM CDT SAT APR 21 2018

...IN SOUTHWEST TEXAS AND SOUTHEAST NEW MEXICO...

CITY           SKY/WX    TMP DP  RH WIND       PRES   REMARKS
ALPINE         MOSUNNY   66  13  12 W9G17     30.13S
ANDREWS        FAIR      62  40  43 NW17G28   30.01R
ARTESIA        SUNNY     61  30  31 NE10G18   30.04F
BIG SPRING     SUNNY     65  48  53 W15G29    29.99R
CARLSBAD       SUNNY     64  27  24 N15       30.04R
DRYDEN           N/A     74  37  26 MISG      29.98S
FORT STOCKTON  SUNNY     66  27  23 NW18      30.04R
GUAD PASS      SUNNY     55  27  34 W23G33    30.10R
HOBBS          SUNNY     61  34  36 NW23      30.03R
LAMESA         FAIR      61  48  63 NW26G33   29.97R HAZE
MARFA          SUNNY     61  21  21 W15G29    30.12R
MIDLAND AIRPK    N/A     66  41  40 NW18G24   29.99S
MIDLAND INTL   SUNNY     66  40  38 NW22G32   29.99R
ODESSA         SUNNY     64  39  39 NW22G29   30.00S
PECOS          SUNNY     65  26  22 NW13      30.05R
PRESIDIO       FAIR      71  20  14 W21G31    30.08R
SEMINOLE       SUNNY     62  40  43 NW21      30.01R
SNYDER         SUNNY     67  49  51 SW21G26   29.90R
WINK           SUNNY     68  32  26 NW20G26   30.01S
$$
...OTHER STATIONS IN TEXAS...

CITY           SKY/WX    TMP DP  RH WIND       PRES   REMARKS
ABILENE        PTSUNNY   67  58  72 S20G26    29.91S
AMARILLO       CLOUDY    47  46  97 N14       30.03R FOG
AUSTIN         CLOUDY    64  61  90 E8        30.00R
BROWNSVILLE    CLOUDY    82  72  71 SE18G31   29.94R
CORPUS CHRISTI PTSUNNY   76  72  87 SE20      29.93R
DALLAS FTW     CLOUDY    62  52  69 S13G23    29.95S
DEL RIO        MOSUNNY   73  62  68 S6        29.97R
EL PASO        MOSUNNY   62  24  23 NW8       30.10F
HOUSTON INT    PTSUNNY   67  61  81 E13       30.05F
LUBBOCK        PTSUNNY   62  51  67 NW16G22   29.95R
SAN ANGELO     SUNNY     73  51  46 SW18G26   29.94S
SAN ANTONIO    DRIZZLE   64  62  93 SE7       29.99S FOG
WACO           LGT RAIN  62  55  77 SE17      29.98F
WICHITA FALLS  LGT RAIN  46  44  93 E10       30.17R FOG
$$
...OTHER LOCATIONS IN NEW MEXICO...

CITY           SKY/WX    TMP DP  RH WIND       PRES   REMARKS
ALAMOGORDO     SUNNY     57  27  30 N12G21    30.13R
ALBUQUERQUE    PTSUNNY   44  29  55 CALM      30.14F
CANNON AFB     CLOUDY    47  47 100 N14       30.06
CLOVIS         CLOUDY    47  42  83 N21       30.05R WCI  39
HOLLOMAN AFB   SUNNY     60  27  28 NW13      30.15R
ROSWELL        SUNNY     63  28  26 NW20G26   30.03S
RUIDOSO        SUNNY     45  23  42 NW15G25   30.13R WCI  38
SANTA FE       CLOUDY    48  28  46 NW7       30.11R
TRUTH OR CONSE SUNNY     57  26  30 VRB7      30.13S
TUCUMCARI      MOSUNNY   52  41  66 N15       30.05S
$$




USA.gov is the U.S. government's official web portal to all federal, state and local government web resources and services.